Orbital Elements at Epoch 2459000.5 (2020-May-31.0) TDB
Reference: JPL 17 (heliocentric ecliptic J2000)
Element | Value | Uncertainty (1-sigma) | Units |
e | .1183250753433328 | 4.8357e-08 | |
a | 2.587729188722963 | 1.7933e-08 | au |
q | 2.281535937499177 | 1.2721e-07 | au |
i | 13.97385574963479 | 4.721e-06 | deg |
node | 36.77909024563976 | 1.877e-05 | deg |
peri | 329.09172762 | 2.8562e-05 | deg |
M | 124.0364245791724 | 2.3843e-05 | deg |
tp | 2458476.630153095923 (2018-Dec-24.13015310) | 9.7223e-05 | TDB |
period | 1520.46582707718 4.16 | 1.5805e-05 4.327e-08 | d yr |
n | .2367695436417896 | 2.4612e-09 | deg/d |
Q | 2.893922439946749 | 2.0055e-08 | au |
|
| | Orbit Determination Parameters
Additional Information
|